,,,PA_Meas_PMT16A,,PR_Meas_QMR101_102,,RH_Meas_QMH101,,SR_Meas_QMS101,,TA_Meas_QMH101,,GenWind,,GenWind,
date,time,status,PA,status,PR,status,RH,status,SR,status,TA,status,DirAvg,status,SpdAvg,
2008-06-30, 00:00:05,VALID,1010.37,VALID,0,VALID,93.7129,VALID,0,VALID,24.6099,VALID,100,VALID,0.469141,
2008-06-30, 00:01:05,VALID,1010.35,VALID,0,VALID,93.6061,VALID,0,VALID,24.6294,VALID,84,VALID,0.441406,
2008-06-30, 00:02:05,VALID,1010.33,VALID,0,VALID,93.4612,VALID,0,VALID,24.6294,VALID,85,VALID,0.211328,
2008-06-30, 00:03:05,VALID,1010.31,VALID,0,VALID,93.4384,VALID,0,VALID,24.6684,VALID,85,VALID,0.0984375,
2008-06-30, 00:04:05,VALID,1010.27,VALID,0,VALID,93.3163,VALID,0,VALID,24.6898,VALID,85,VALID,0.05,
2008-06-30, 00:05:05,VALID,1010.25,VALID,0,VALID,93.2706,VALID,0,VALID,24.6898,VALID,75,VALID,0.25,
2008-06-30, 00:06:05,VALID,1010.22,VALID,0,VALID,93.2858,VALID,0,VALID,24.7074,VALID,59,VALID,0.106641,
2008-06-30, 00:07:05,VALID,1010.22,VALID,0,VALID,93.3163,VALID,0,VALID,24.7288,VALID,59,VALID,0.0117188,
2008-06-30, 00:08:05,VALID,1010.21,VALID,0,VALID,93.1867,VALID,0,VALID,24.7288,VALID,59,VALID,0.144531,
2008-06-30, 00:09:05,VALID,1010.19,VALID,0,VALID,93.0799,VALID,0,VALID,24.7483,VALID,59,VALID,0.217969,
2008-06-30, 00:10:05,VALID,1010.18,VALID,0,VALID,92.9884,VALID,0,VALID,24.7483,VALID,59,VALID,0.236719,
2008-06-30, 00:11:05,VALID,1010.15,VALID,0,VALID,92.9579,VALID,0,VALID,24.7483,VALID,59,VALID,0.173828,
2008-06-30, 00:12:05,VALID,1010.09,VALID,0,VALID,93.0342,VALID,0,VALID,24.7678,VALID,59,VALID,0,
2008-06-30, 00:13:05,VALID,1010.05,VALID,0,VALID,93.0189,VALID,0,VALID,24.7678,VALID,59,VALID,0.176953,
2008-06-30, 00:14:05,VALID,1010.02,VALID,0,VALID,93.1715,VALID,0.105969,VALID,24.764,VALID,59,VALID,0.0457031,
2008-06-30, 00:15:05,VALID,1009.99,VALID,0,VALID,93.1562,VALID,0.105969,VALID,24.764,VALID,59,VALID,0,
2008-06-30, 00:16:05,VALID,1009.97,VALID,0,VALID,93.0418,VALID,0.105969,VALID,24.764,VALID,59,VALID,0.314844,
2008-06-30, 00:17:05,VALID,1009.97,VALID,0,VALID,92.8512,VALID,0.105969,VALID,24.764,VALID,53,VALID,0.405859,
2008-06-30, 00:18:05,VALID,1009.98,VALID,0,VALID,92.8664,VALID,0,VALID,24.764,VALID,53,VALID,0.498828,
2008-06-30, 00:19:05,VALID,1009.95,VALID,0,VALID,92.9579,VALID,0.105969,VALID,24.764,VALID,48,VALID,0.496094,
2008-06-30, 00:20:05,VALID,1009.96,VALID,0,VALID,93.0342,VALID,0.105969,VALID,24.764,VALID,31,VALID,0.517969,
2008-06-30, 00:21:05,VALID,1009.94,VALID,0,VALID,93.0952,VALID,0.105969,VALID,24.764,VALID,31,VALID,0.341016,
2008-06-30, 00:22:05,VALID,1009.91,VALID,0,VALID,93.1257,VALID,0.105969,VALID,24.725,VALID,33,VALID,0.392578,
2008-06-30, 00:23:05,VALID,1009.93,VALID,0,VALID,93.2096,VALID,0.105969,VALID,24.7464,VALID,48,VALID,0.451562,
2008-06-30, 00:24:05,VALID,1009.88,VALID,0,VALID,93.2325,VALID,0.105969,VALID,24.7269,VALID,48,VALID,0.401563,
2008-06-30, 00:25:05,VALID,1009.88,VALID,0,VALID,93.2248,VALID,0.105969,VALID,24.7055,VALID,48,VALID,0.223828,
2008-06-30, 00:26:05,VALID,1009.88,VALID,0,VALID,93.2858,VALID,0.105969,VALID,24.686,VALID,48,VALID,0,
2008-06-30, 00:27:05,VALID,1009.87,VALID,0,VALID,93.3773,VALID,0,VALID,24.6666,VALID,48,VALID,0,
2008-06-30, 00:28:05,VALID,1009.88,VALID,0,VALID,93.3773,VALID,0.105969,VALID,24.6666,VALID,48,VALID,0.163672,
2008-06-30, 00:29:05,VALID,1009.91,VALID,0,VALID,93.4002,VALID,0.105969,VALID,24.6666,VALID,48,VALID,0,
2008-06-30, 00:30:05,VALID,1009.89,VALID,0,VALID,93.4689,VALID,0.105969,VALID,24.686,VALID,48,VALID,0,
2008-06-30, 00:31:05,VALID,1009.88,VALID,0,VALID,93.4994,VALID,0.105969,VALID,24.6666,VALID,48,VALID,0.00195313,
2008-06-30, 00:32:05,VALID,1009.88,VALID,0,VALID,93.5299,VALID,0.105969,VALID,24.6879,VALID,48,VALID,0.363281,
2008-06-30, 00:33:05,VALID,1009.85,VALID,0,VALID,93.5756,VALID,0.105969,VALID,24.6666,VALID,48,VALID,0.00351562,
2008-06-30, 00:34:05,VALID,1009.83,VALID,0,VALID,93.5756,VALID,0.105969,VALID,24.6666,VALID,48,VALID,0.223828,
2008-06-30, 00:35:05,VALID,1009.82,VALID,0,VALID,93.6214,VALID,0.105969,VALID,24.6666,VALID,48,VALID,0.00898437,
2008-06-30, 00:36:05,VALID,1009.78,VALID,0,VALID,93.5527,VALID,0.105969,VALID,24.6471,VALID,48,VALID,0,
2008-06-30, 00:37:05,VALID,1009.75,VALID,0,VALID,93.5299,VALID,0.105969,VALID,24.6666,VALID,48,VALID,0,
2008-06-30, 00:38:05,VALID,1009.71,VALID,0,VALID,93.5604,VALID,0,VALID,24.6666,VALID,48,VALID,0,
2008-06-30, 00:39:05,VALID,1009.68,VALID,0,VALID,93.5985,VALID,0.105969,VALID,24.6666,VALID,48,VALID,0.110547,
2008-06-30, 00:40:05,VALID,1009.67,VALID,0,VALID,93.5985,VALID,0.105969,VALID,24.6666,VALID,48,VALID,0.308203,
2008-06-30, 00:41:05,VALID,1009.62,VALID,0,VALID,93.5985,VALID,0,VALID,24.6471,VALID,48,VALID,0,
2008-06-30, 00:42:05,VALID,1009.63,VALID,0,VALID,93.5985,VALID,0.105969,VALID,24.6276,VALID,48,VALID,0,
2008-06-30, 00:43:05,VALID,1009.63,VALID,0,VALID,93.6595,VALID,0.105969,VALID,24.6684,VALID,48,VALID,0,
2008-06-30, 00:44:05,VALID,1009.62,VALID,0,VALID,93.7129,VALID,0,VALID,24.6489,VALID,48,VALID,0,
2008-06-30, 00:45:05,VALID,1009.62,VALID,0,VALID,93.7586,VALID,0,VALID,24.6489,VALID,48,VALID,0.224609,
2008-06-30, 00:46:05,VALID,1009.63,VALID,0,VALID,93.7205,VALID,0,VALID,24.6489,VALID,48,VALID,0.170312,
2008-06-30, 00:47:05,VALID,1009.61,VALID,0,VALID,93.6519,VALID,0,VALID,24.6684,VALID,48,VALID,0.228906,
2008-06-30, 00:48:05,VALID,1009.62,VALID,0,VALID,93.5527,VALID,0,VALID,24.6489,VALID,48,VALID,0.472266,
2008-06-30, 00:49:05,VALID,1009.62,VALID,0,VALID,93.4841,VALID,0,VALID,24.6489,VALID,48,VALID,0.415625,
2008-06-30, 00:50:05,VALID,1009.62,VALID,0,VALID,93.5222,VALID,0,VALID,24.6489,VALID,48,VALID,0.623438,
2008-06-30, 00:51:05,VALID,1009.61,VALID,0,VALID,93.5146,VALID,0,VALID,24.6099,VALID,48,VALID,0.199609,
2008-06-30, 00:52:05,VALID,1009.63,VALID,0,VALID,93.5985,VALID,0,VALID,24.6099,VALID,48,VALID,0.171875,
2008-06-30, 00:53:05,VALID,1009.65,VALID,0,VALID,93.7739,VALID,0,VALID,24.6099,VALID,313,VALID,0.404687,
2008-06-30, 00:54:05,VALID,1009.61,VALID,0,VALID,93.8349,VALID,0,VALID,24.6294,VALID,284,VALID,0.223438,
2008-06-30, 00:55:05,VALID,1009.62,VALID,0,VALID,93.7358,VALID,0,VALID,24.6489,VALID,287,VALID,0.415234,
2008-06-30, 00:56:05,VALID,1009.62,VALID,0,VALID,93.6519,VALID,0,VALID,24.6489,VALID,296,VALID,0.407031,
2008-06-30, 00:57:05,VALID,1009.62,VALID,0,VALID,93.507,VALID,0,VALID,24.6684,VALID,332,VALID,0.166797,
2008-06-30, 00:58:05,VALID,1009.64,VALID,0,VALID,93.4231,VALID,0,VALID,24.6489,VALID,332,VALID,0.00273437,
2008-06-30, 00:59:05,VALID,1009.63,VALID,0,VALID,93.3468,VALID,0.105969,VALID,24.6471,VALID,332,VALID,0.337891,
2008-06-30, 01:00:05,VALID,1009.58,VALID,0,VALID,93.3316,VALID,0.105969,VALID,24.6294,VALID,332,VALID,0.1,
2008-06-30, 01:01:05,VALID,1009.6,VALID,0,VALID,93.385,VALID,0.105969,VALID,24.5886,VALID,332,VALID,0.0839844,
2008-06-30, 01:02:05,VALID,1009.61,VALID,0,VALID,93.446,VALID,0.105969,VALID,24.5496,VALID,332,VALID,0.153516,
2008-06-30, 01:03:05,VALID,1009.61,VALID,0,VALID,93.5604,VALID,0.105969,VALID,24.5106,VALID,332,VALID,0.187109,
2008-06-30, 01:04:05,VALID,1009.6,VALID,0,VALID,93.6748,VALID,0.105969,VALID,24.4911,VALID,332,VALID,0.0964844,
2008-06-30, 01:05:05,VALID,1009.58,VALID,0,VALID,93.751,VALID,0.105969,VALID,24.4911,VALID,332,VALID,0.310547,
2008-06-30, 01:06:05,VALID,1009.56,VALID,0,VALID,93.8654,VALID,0.105969,VALID,24.4717,VALID,332,VALID,0.2125,
2008-06-30, 01:07:05,VALID,1009.54,VALID,0,VALID,93.9417,VALID,0.105969,VALID,24.4717,VALID,332,VALID,0.377734,
2008-06-30, 01:08:05,VALID,1009.49,VALID,0,VALID,94.0179,VALID,0.105969,VALID,24.4522,VALID,332,VALID,0.145313,
2008-06-30, 01:09:05,VALID,1009.47,VALID,0,VALID,94.1094,VALID,0.105969,VALID,24.4717,VALID,332,VALID,0.247266,
2008-06-30, 01:10:05,VALID,1009.43,VALID,0,VALID,94.1704,VALID,0.105969,VALID,24.4717,VALID,332,VALID,0.114453,
2008-06-30, 01:11:05,VALID,1009.38,VALID,0,VALID,94.2314,VALID,0.105969,VALID,24.4717,VALID,332,VALID,0.0675781,
2008-06-30, 01:12:05,VALID,1009.35,VALID,0,VALID,94.3001,VALID,0.105969,VALID,24.4911,VALID,332,VALID,0.15625,
2008-06-30, 01:13:05,VALID,1009.33,VALID,0,VALID,94.3229,VALID,0.105969,VALID,24.5301,VALID,103,VALID,0.538281,
2008-06-30, 01:14:05,VALID,1009.3,VALID,0,VALID,94.2619,VALID,0,VALID,24.5533,VALID,101,VALID,0.301953,
2008-06-30, 01:15:05,VALID,1009.32,VALID,0,VALID,94.1933,VALID,0,VALID,24.5515,VALID,99,VALID,0.324219,
2008-06-30, 01:16:05,VALID,1009.29,VALID,0,VALID,94.0865,VALID,0,VALID,24.5905,VALID,91,VALID,0.401172,
2008-06-30, 01:17:05,VALID,1009.31,VALID,0,VALID,94.0027,VALID,0,VALID,24.6099,VALID,91,VALID,0.347266,
2008-06-30, 01:18:05,VALID,1009.32,VALID,0,VALID,93.9722,VALID,0,VALID,24.6294,VALID,87,VALID,0.679297,
2008-06-30, 01:19:05,VALID,1009.3,VALID,0,VALID,93.8959,VALID,0,VALID,24.6684,VALID,75,VALID,0.551953,
2008-06-30, 01:20:05,VALID,1009.29,VALID,0,VALID,93.873,VALID,0,VALID,24.6879,VALID,80,VALID,0.445703,
2008-06-30, 01:21:05,VALID,1009.3,VALID,0,VALID,93.7434,VALID,0,VALID,24.6879,VALID,78,VALID,0.470313,
2008-06-30, 01:22:05,VALID,1009.29,VALID,0,VALID,93.6595,VALID,0,VALID,24.7074,VALID,78,VALID,0.492188,
2008-06-30, 01:23:05,VALID,1009.28,VALID,0,VALID,93.5832,VALID,0,VALID,24.7269,VALID,72,VALID,0.55,
2008-06-30, 01:24:05,VALID,1009.28,VALID,0,VALID,93.5527,VALID,0,VALID,24.7464,VALID,62,VALID,0.338281,
2008-06-30, 01:25:05,VALID,1009.24,VALID,0,VALID,93.446,VALID,0,VALID,24.7269,VALID,62,VALID,0.320703,
2008-06-30, 01:26:05,VALID,1009.23,VALID,0,VALID,93.3545,VALID,0,VALID,24.7269,VALID,21,VALID,0.459375,
2008-06-30, 01:27:05,VALID,1009.22,VALID,0,VALID,93.3697,VALID,0,VALID,24.7483,VALID,54,VALID,0.28125,
2008-06-30, 01:28:05,VALID,1009.22,VALID,0,VALID,93.4384,VALID,0,VALID,24.7464,VALID,53,VALID,0.0914062,
2008-06-30, 01:29:05,VALID,1009.19,VALID,0,VALID,93.446,VALID,0,VALID,24.7269,VALID,34,VALID,0.0851562,
2008-06-30, 01:30:05,VALID,1009.18,VALID,0,VALID,93.4917,VALID,0,VALID,24.7464,VALID,34,VALID,0,
2008-06-30, 01:31:05,VALID,1009.14,VALID,0,VALID,93.4765,VALID,0,VALID,24.7464,VALID,34,VALID,0.169531,
2008-06-30, 01:32:05,VALID,1009.14,VALID,0,VALID,93.4536,VALID,0,VALID,24.7269,VALID,34,VALID,0.212109,
2008-06-30, 01:33:05,VALID,1009.14,VALID,0,VALID,93.4917,VALID,0,VALID,24.7269,VALID,34,VALID,0.207422,
2008-06-30, 01:34:05,VALID,1009.11,VALID,0,VALID,93.4917,VALID,0,VALID,24.7269,VALID,34,VALID,0.232031,
2008-06-30, 01:35:05,VALID,1009.09,VALID,0,VALID,93.4917,VALID,0,VALID,24.7483,VALID,34,VALID,0.0375,
2008-06-30, 01:36:05,VALID,1009.05,VALID,0,VALID,93.4689,VALID,0,VALID,24.7074,VALID,34,VALID,0.163281,
2008-06-30, 01:37:05,VALID,1009.04,VALID,0,VALID,93.5222,VALID,0,VALID,24.6879,VALID,34,VALID,0,
2008-06-30, 01:38:05,VALID,1009.02,VALID,0,VALID,93.5985,VALID,0,VALID,24.6879,VALID,34,VALID,0,
2008-06-30, 01:39:05,VALID,1009.02,VALID,0,VALID,93.6442,VALID,0,VALID,24.6879,VALID,34,VALID,0,
2008-06-30, 01:40:05,VALID,1009,VALID,0,VALID,93.7281,VALID,0,VALID,24.6879,VALID,34,VALID,0,
2008-06-30, 01:41:05,VALID,1009.02,VALID,0,VALID,93.7434,VALID,0,VALID,24.6898,VALID,33,VALID,0,
2008-06-30, 01:42:05,VALID,1009.02,VALID,0,VALID,93.7968,VALID,0,VALID,24.6879,VALID,34,VALID,0.0738281,
2008-06-30, 01:43:05,VALID,1009.04,VALID,0,VALID,93.873,VALID,0,VALID,24.6684,VALID,34,VALID,0,
2008-06-30, 01:44:05,VALID,1009.04,VALID,0,VALID,93.8807,VALID,0,VALID,24.7093,VALID,34,VALID,0,
2008-06-30, 01:45:05,VALID,1009.01,VALID,0,VALID,93.8425,VALID,0,VALID,24.6684,VALID,34,VALID,0,
2008-06-30, 01:46:04,VALID,1009.03,VALID,0,VALID,93.8044,VALID,0,VALID,24.6684,VALID,34,VALID,0,
2008-06-30, 01:47:04,VALID,1009.01,VALID,0,VALID,93.7815,VALID,0,VALID,24.6489,VALID,34,VALID,0.0046875,
2008-06-30, 01:48:04,VALID,1008.98,VALID,0,VALID,93.7815,VALID,0,VALID,24.6489,VALID,34,VALID,0.378516,
2008-06-30, 01:49:04,VALID,1008.98,VALID,0,VALID,93.8654,VALID,0,VALID,24.6703,VALID,34,VALID,0.313281,
2008-06-30, 01:50:04,VALID,1008.99,VALID,0,VALID,93.8807,VALID,0,VALID,24.6508,VALID,79,VALID,0.441016,
2008-06-30, 01:51:04,VALID,1008.98,VALID,0,VALID,93.873,VALID,0,VALID,24.6489,VALID,80,VALID,0.187891,
2008-06-30, 01:52:04,VALID,1009.01,VALID,0,VALID,93.8196,VALID,0,VALID,24.6684,VALID,80,VALID,0.153516,
2008-06-30, 01:53:04,VALID,1008.99,VALID,0,VALID,93.7358,VALID,0,VALID,24.6879,VALID,80,VALID,0.0855469,
2008-06-30, 01:54:04,VALID,1009,VALID,0,VALID,93.6671,VALID,0,VALID,24.7093,VALID,80,VALID,0.217969,
2008-06-30, 01:55:04,VALID,1008.98,VALID,0,VALID,93.629,VALID,0,VALID,24.7093,VALID,80,VALID,0.141797,
2008-06-30, 01:56:04,VALID,1008.96,VALID,0,VALID,93.5451,VALID,0,VALID,24.6898,VALID,80,VALID,0.344922,
2008-06-30, 01:57:04,VALID,1008.95,VALID,0,VALID,93.5146,VALID,0,VALID,24.6684,VALID,75,VALID,0.217578,
2008-06-30, 01:58:04,VALID,1008.96,VALID,0,VALID,93.4994,VALID,0,VALID,24.6489,VALID,75,VALID,0.122266,
2008-06-30, 01:59:04,VALID,1008.91,VALID,0,VALID,93.5604,VALID,0.105969,VALID,24.6276,VALID,75,VALID,0,
2008-06-30, 02:00:04,VALID,1008.89,VALID,0,VALID,93.5985,VALID,0.105969,VALID,24.6276,VALID,75,VALID,0,
2008-06-30, 02:01:04,VALID,1008.9,VALID,0,VALID,93.6595,VALID,0.105969,VALID,24.6294,VALID,75,VALID,0,
2008-06-30, 02:02:04,VALID,1008.9,VALID,0,VALID,93.7205,VALID,0.105969,VALID,24.6099,VALID,75,VALID,0,
2008-06-30, 02:03:04,VALID,1008.92,VALID,0,VALID,93.7663,VALID,0.105969,VALID,24.5886,VALID,75,VALID,0,
2008-06-30, 02:04:04,VALID,1008.92,VALID,0,VALID,93.8044,VALID,0,VALID,24.5886,VALID,75,VALID,0,
2008-06-30, 02:05:04,VALID,1008.95,VALID,0,VALID,93.8654,VALID,0.105969,VALID,24.5886,VALID,75,VALID,0,
2008-06-30, 02:06:04,VALID,1008.96,VALID,0,VALID,93.9112,VALID,0,VALID,24.5691,VALID,75,VALID,0.00585938,
2008-06-30, 02:07:04,VALID,1008.96,VALID,0,VALID,93.9798,VALID,0.105969,VALID,24.5886,VALID,75,VALID,0.148438,
2008-06-30, 02:08:04,VALID,1008.93,VALID,0,VALID,94.056,VALID,0,VALID,24.5886,VALID,75,VALID,0,
2008-06-30, 02:09:04,VALID,1008.94,VALID,0,VALID,94.0713,VALID,0.105969,VALID,24.5905,VALID,75,VALID,0.213281,
2008-06-30, 02:10:04,VALID,1008.93,VALID,0,VALID,94.0942,VALID,0.105969,VALID,24.5886,VALID,74,VALID,0.0632813,
2008-06-30, 02:11:04,VALID,1008.92,VALID,0,VALID,94.1018,VALID,0.105969,VALID,24.6081,VALID,75,VALID,0.0183594,
2008-06-30, 02:12:04,VALID,1008.95,VALID,0,VALID,94.0713,VALID,0.105969,VALID,24.6489,VALID,75,VALID,0.0785156,
2008-06-30, 02:13:04,VALID,1008.92,VALID,0,VALID,94.0408,VALID,0,VALID,24.6276,VALID,75,VALID,0,
2008-06-30, 02:14:04,VALID,1008.93,VALID,0,VALID,93.9493,VALID,0,VALID,24.6294,VALID,75,VALID,0.0289063,
2008-06-30, 02:15:04,VALID,1008.93,VALID,0,VALID,93.873,VALID,0,VALID,24.6294,VALID,75,VALID,0,
2008-06-30, 02:16:04,VALID,1008.92,VALID,0,VALID,93.8425,VALID,0,VALID,24.6508,VALID,75,VALID,0,
2008-06-30, 02:17:04,VALID,1008.91,VALID,0,VALID,93.8044,VALID,0,VALID,24.6294,VALID,75,VALID,0,
2008-06-30, 02:18:04,VALID,1008.88,VALID,0,VALID,93.751,VALID,0,VALID,24.6294,VALID,75,VALID,0,
2008-06-30, 02:19:04,VALID,1008.88,VALID,0,VALID,93.6671,VALID,0,VALID,24.6508,VALID,75,VALID,0.117188,
2008-06-30, 02:20:04,VALID,1008.88,VALID,0,VALID,93.5832,VALID,0,VALID,24.6313,VALID,75,VALID,0.211328,
2008-06-30, 02:21:04,VALID,1008.87,VALID,0,VALID,93.629,VALID,0,VALID,24.6099,VALID,75,VALID,0.208984,
2008-06-30, 02:22:04,VALID,1008.87,VALID,0,VALID,93.6671,VALID,0,VALID,24.5905,VALID,75,VALID,0.195703,
2008-06-30, 02:23:04,VALID,1008.87,VALID,0,VALID,93.6824,VALID,0,VALID,24.571,VALID,74,VALID,0,
2008-06-30, 02:24:04,VALID,1008.88,VALID,0,VALID,93.7205,VALID,0,VALID,24.5515,VALID,75,VALID,0,
2008-06-30, 02:25:04,VALID,1008.88,VALID,0,VALID,93.7968,VALID,0,VALID,24.5515,VALID,75,VALID,0,
2008-06-30, 02:26:04,VALID,1008.89,VALID,0,VALID,93.8578,VALID,0,VALID,24.532,VALID,75,VALID,0.283594,
2008-06-30, 02:27:04,VALID,1008.9,VALID,0,VALID,93.9264,VALID,0,VALID,24.5533,VALID,75,VALID,0.223828,
2008-06-30, 02:28:04,VALID,1008.86,VALID,0,VALID,93.9722,VALID,0,VALID,24.493,VALID,75,VALID,0.276953,
2008-06-30, 02:29:04,VALID,1008.86,VALID,0,VALID,94.0637,VALID,0,VALID,24.493,VALID,75,VALID,0.230469,
2008-06-30, 02:30:04,VALID,1008.84,VALID,0,VALID,94.0789,VALID,0,VALID,24.4735,VALID,75,VALID,0.0875,
2008-06-30, 02:31:04,VALID,1008.85,VALID,0,VALID,94.1247,VALID,0,VALID,24.493,VALID,75,VALID,0,
2008-06-30, 02:32:04,VALID,1008.82,VALID,0,VALID,94.1704,VALID,0,VALID,24.4735,VALID,75,VALID,0,
2008-06-30, 02:33:04,VALID,1008.85,VALID,0,VALID,94.1933,VALID,0,VALID,24.493,VALID,75,VALID,0.003125,
2008-06-30, 02:34:04,VALID,1008.83,VALID,0,VALID,94.2391,VALID,0,VALID,24.4735,VALID,74,VALID,0.119141,
2008-06-30, 02:35:04,VALID,1008.81,VALID,0,VALID,94.3001,VALID,0,VALID,24.4735,VALID,75,VALID,0,
2008-06-30, 02:36:04,VALID,1008.79,VALID,0,VALID,94.2924,VALID,0,VALID,24.4735,VALID,75,VALID,0,
2008-06-30, 02:37:04,VALID,1008.81,VALID,0,VALID,94.3382,VALID,0,VALID,24.493,VALID,75,VALID,0,
2008-06-30, 02:38:04,VALID,1008.79,VALID,0,VALID,94.3153,VALID,0,VALID,24.5125,VALID,75,VALID,0,
2008-06-30, 02:39:04,VALID,1008.79,VALID,0,VALID,94.2848,VALID,0,VALID,24.5125,VALID,75,VALID,0,
2008-06-30, 02:40:04,VALID,1008.76,VALID,0,VALID,94.2619,VALID,0,VALID,24.5125,VALID,75,VALID,0,
2008-06-30, 02:41:04,VALID,1008.77,VALID,0,VALID,94.2543,VALID,0,VALID,24.532,VALID,75,VALID,0,
2008-06-30, 02:42:04,VALID,1008.74,VALID,0,VALID,94.2314,VALID,0,VALID,24.532,VALID,75,VALID,0.126953,
2008-06-30, 02:43:04,VALID,1008.73,VALID,0,VALID,94.2238,VALID,0,VALID,24.532,VALID,75,VALID,0.211328,
2008-06-30, 02:44:04,VALID,1008.76,VALID,0,VALID,94.2314,VALID,0,VALID,24.5515,VALID,75,VALID,0.0277344,
2008-06-30, 02:45:04,VALID,1008.72,VALID,0,VALID,94.2696,VALID,0.105969,VALID,24.5515,VALID,75,VALID,0,
2008-06-30, 02:46:04,VALID,1008.75,VALID,0,VALID,94.2772,VALID,0,VALID,24.5515,VALID,75,VALID,0,
2008-06-30, 02:47:04,VALID,1008.75,VALID,0,VALID,94.2848,VALID,0,VALID,24.5515,VALID,75,VALID,0,
2008-06-30, 02:48:04,VALID,1008.72,VALID,0,VALID,94.2848,VALID,0,VALID,24.5515,VALID,74,VALID,0.222266,
2008-06-30, 02:49:04,VALID,1008.74,VALID,0,VALID,94.3001,VALID,0.105969,VALID,24.5905,VALID,74,VALID,0.346484,
2008-06-30, 02:50:04,VALID,1008.73,VALID,0,VALID,94.2924,VALID,0,VALID,24.5905,VALID,73,VALID,0.248047,
2008-06-30, 02:51:04,VALID,1008.72,VALID,0,VALID,94.2848,VALID,0,VALID,24.6099,VALID,74,VALID,0.267188,
2008-06-30, 02:52:04,VALID,1008.73,VALID,0,VALID,94.3077,VALID,0,VALID,24.5905,VALID,73,VALID,0.167578,
2008-06-30, 02:53:04,VALID,1008.74,VALID,0,VALID,94.2772,VALID,0,VALID,24.5905,VALID,73,VALID,0.161328,
2008-06-30, 02:54:04,VALID,1008.73,VALID,0,VALID,94.2848,VALID,0,VALID,24.5905,VALID,72,VALID,0,
2008-06-30, 02:55:04,VALID,1008.74,VALID,0,VALID,94.3001,VALID,0,VALID,24.6099,VALID,72,VALID,0.0351563,
2008-06-30, 02:56:04,VALID,1008.74,VALID,0,VALID,94.3306,VALID,0,VALID,24.6294,VALID,51,VALID,0.296484,
2008-06-30, 02:57:04,VALID,1008.77,VALID,0,VALID,94.3687,VALID,0,VALID,24.6294,VALID,350,VALID,0.0273438,
2008-06-30, 02:58:04,VALID,1008.76,VALID,0,VALID,94.3687,VALID,0,VALID,24.6489,VALID,350,VALID,0,
2008-06-30, 02:59:04,VALID,1008.77,VALID,0,VALID,94.3306,VALID,0,VALID,24.6489,VALID,350,VALID,0,
2008-06-30, 03:00:04,VALID,1008.78,VALID,0,VALID,94.3306,VALID,0,VALID,24.6684,VALID,350,VALID,0.0308594,
2008-06-30, 03:01:04,VALID,1008.75,VALID,0,VALID,94.3153,VALID,0,VALID,24.6471,VALID,350,VALID,0,
2008-06-30, 03:02:04,VALID,1008.77,VALID,0,VALID,94.3077,VALID,0,VALID,24.6684,VALID,350,VALID,0.152734,
2008-06-30, 03:03:04,VALID,1008.81,VALID,0,VALID,94.2924,VALID,0,VALID,24.6684,VALID,350,VALID,0,
2008-06-30, 03:04:04,VALID,1008.79,VALID,0,VALID,94.2848,VALID,0,VALID,24.6879,VALID,350,VALID,0.149609,
2008-06-30, 03:05:04,VALID,1008.83,VALID,0,VALID,94.3077,VALID,0,VALID,24.6879,VALID,350,VALID,0.0464844,
2008-06-30, 03:06:04,VALID,1008.81,VALID,0,VALID,94.2848,VALID,0,VALID,24.7074,VALID,28,VALID,0.4125,
2008-06-30, 03:07:04,VALID,1008.82,VALID,0,VALID,94.2848,VALID,0,VALID,24.7269,VALID,30,VALID,0.0746094,
2008-06-30, 03:08:04,VALID,1008.86,VALID,0,VALID,94.2543,VALID,0,VALID,24.7269,VALID,30,VALID,0.104297,
2008-06-30, 03:09:04,VALID,1008.83,VALID,0,VALID,94.3153,VALID,0,VALID,24.7464,VALID,30,VALID,0.139844,
2008-06-30, 03:10:04,VALID,1008.83,VALID,0,VALID,94.2772,VALID,0,VALID,24.7659,VALID,30,VALID,0,
2008-06-30, 03:11:04,VALID,1008.84,VALID,0,VALID,94.1933,VALID,0,VALID,24.7659,VALID,30,VALID,0.0457031,
2008-06-30, 03:12:04,VALID,1008.85,VALID,0,VALID,94.1018,VALID,0,VALID,24.7872,VALID,30,VALID,0,
2008-06-30, 03:13:04,VALID,1008.83,VALID,0,VALID,94.0408,VALID,0,VALID,24.7854,VALID,30,VALID,0,
2008-06-30, 03:14:04,VALID,1008.84,VALID,0,VALID,94.0637,VALID,0,VALID,24.8049,VALID,30,VALID,0.0691406,
2008-06-30, 03:15:04,VALID,1008.85,VALID,0,VALID,93.9417,VALID,0,VALID,24.8049,VALID,30,VALID,0.227734,
2008-06-30, 03:16:04,VALID,1008.85,VALID,0,VALID,94.0255,VALID,0,VALID,24.8438,VALID,30,VALID,0.26875,
2008-06-30, 03:17:04,VALID,1008.84,VALID,0,VALID,93.8807,VALID,0,VALID,24.8438,VALID,30,VALID,0.198047,
2008-06-30, 03:18:04,VALID,1008.84,VALID,0,VALID,93.8273,VALID,0,VALID,24.8652,VALID,30,VALID,0.213672,
2008-06-30, 03:19:04,VALID,1008.81,VALID,0,VALID,93.6976,VALID,0,VALID,24.8438,VALID,22,VALID,0.688281,
2008-06-30, 03:20:04,VALID,1008.8,VALID,0,VALID,93.5832,VALID,0,VALID,24.8633,VALID,47,VALID,0.243359,
2008-06-30, 03:21:04,VALID,1008.8,VALID,0,VALID,93.6214,VALID,0,VALID,24.8847,VALID,46,VALID,0.0140625,
2008-06-30, 03:22:04,VALID,1008.78,VALID,0,VALID,93.6366,VALID,0,VALID,24.8828,VALID,46,VALID,0,
2008-06-30, 03:23:04,VALID,1008.77,VALID,0,VALID,93.4765,VALID,0,VALID,24.8828,VALID,35,VALID,0.277734,
2008-06-30, 03:24:04,VALID,1008.73,VALID,0,VALID,93.5375,VALID,0,VALID,24.8828,VALID,36,VALID,0.232422,
2008-06-30, 03:25:04,VALID,1008.73,VALID,0,VALID,93.5146,VALID,0,VALID,24.9023,VALID,35,VALID,0.185156,
2008-06-30, 03:26:04,VALID,1008.72,VALID,0,VALID,93.5451,VALID,0,VALID,24.8828,VALID,35,VALID,0,
2008-06-30, 03:27:04,VALID,1008.75,VALID,0,VALID,93.3926,VALID,0,VALID,24.8828,VALID,36,VALID,0.0167969,
2008-06-30, 03:28:04,VALID,1008.73,VALID,0,VALID,93.3087,VALID,0,VALID,24.9042,VALID,38,VALID,0.192188,
2008-06-30, 03:29:04,VALID,1008.71,VALID,0,VALID,93.3011,VALID,0.105969,VALID,24.8809,VALID,41,VALID,0.0269531,
2008-06-30, 03:30:04,VALID,1008.7,VALID,0,VALID,93.2477,VALID,0.105969,VALID,24.8809,VALID,41,VALID,0,
2008-06-30, 03:31:04,VALID,1008.67,VALID,0,VALID,93.263,VALID,0.105969,VALID,24.9004,VALID,41,VALID,0.234375,
2008-06-30, 03:32:04,VALID,1008.66,VALID,0,VALID,93.2706,VALID,0,VALID,24.9218,VALID,41,VALID,0.196094,
2008-06-30, 03:33:04,VALID,1008.64,VALID,0,VALID,93.3773,VALID,0.105969,VALID,24.9199,VALID,41,VALID,0.148828,
2008-06-30, 03:34:04,VALID,1008.63,VALID,0,VALID,93.3621,VALID,0.105969,VALID,24.9199,VALID,41,VALID,0.000390625,
2008-06-30, 03:35:04,VALID,1008.64,VALID,0,VALID,93.263,VALID,0.105969,VALID,24.9199,VALID,41,VALID,0.0546875,
2008-06-30, 03:36:04,VALID,1008.65,VALID,0,VALID,93.2553,VALID,0.105969,VALID,24.9199,VALID,41,VALID,0,
2008-06-30, 03:37:04,VALID,1008.65,VALID,0,VALID,93.3163,VALID,0.105969,VALID,24.9199,VALID,41,VALID,0,
2008-06-30, 03:38:04,VALID,1008.63,VALID,0,VALID,93.4307,VALID,0.105969,VALID,24.9394,VALID,41,VALID,0.136328,
2008-06-30, 03:39:04,VALID,1008.64,VALID,0,VALID,93.3468,VALID,0.105969,VALID,24.9608,VALID,41,VALID,0,
2008-06-30, 03:40:04,VALID,1008.63,VALID,0,VALID,93.2553,VALID,0.105969,VALID,24.9394,VALID,25,VALID,0.434375,
2008-06-30, 03:41:04,VALID,1008.67,VALID,0,VALID,93.3163,VALID,0.105969,VALID,24.9394,VALID,3,VALID,0.415625,
2008-06-30, 03:42:04,VALID,1008.7,VALID,0,VALID,93.2935,VALID,0,VALID,24.9608,VALID,3,VALID,0.0238281,
2008-06-30, 03:43:04,VALID,1008.73,VALID,0,VALID,93.1715,VALID,0.105969,VALID,24.9394,VALID,107,VALID,0.635938,
2008-06-30, 03:44:04,VALID,1008.75,VALID,0,VALID,93.1715,VALID,0,VALID,24.9608,VALID,104,VALID,0.535937,
2008-06-30, 03:45:04,VALID,1008.78,VALID,0,VALID,93.2553,VALID,0.105969,VALID,24.9803,VALID,92,VALID,0.851563,